STARLINK-1033 (44738 NORAD) Tracking and Keplerian Element Data

This shows tracking and keplerian element data for the satellite.

Feedback or suggestion? Click here.




ElementValue
Catalog44738
NameSTARLINK-1033
Epoch Orbit161
Epoch Day93.91667824
Epoch Year2020
RAAN213.6747
Inclination52.9932
Eccentricity0.0001572
Argument of Perigee114.7421
Mean Anonmoly159.6278
Mean Motion15.05584512
Decay Rate-0.00019565
L11 44738U 19074AB 20093.91667824 -.00019565 00000-0 -13271-2 0 9998
L22 44738 52.9932 213.6747 0001572 114.7421 159.6278 15.05584512 1615

Live tracking and technical data element details for STARLINK-1033 (NORAD 44738). STARLINK-1033 can be tracked NOW for your location showing map with azimuth and elevation plus other details from your city location.

Track the satellite on the map from your city or location and see movement details for azimuth, elevation, latitude, longitude, range, height, and movement on the map or in text.







IsCatalogInMostPopularTable: catalog: 44738, numindb: 48
Update: records affected: 1



GetName: 44738 STARLINK-1033

Hit Count: updated at: Fri, 03 Apr 2020 23:01:29 GMT